�������l�o���
Date,Time,MP-1(��Sv/h),MP-2(��Sv/h),MP-3(��Sv/h),MP-4(��Sv/h),MP-5(��Sv/h),MP-6(��Sv/h),MP-7(��Sv/h),MP-8(��Sv/h),����,����(m/s),���J
2016/12/24,00:00,1.091,1.812,1.187,2.058,1.413,0.568,1.034,0.958,�k��,3.7,��
2016/12/24,00:10,1.092,1.811,1.186,2.059,1.415,0.567,1.034,0.958,���k��,3.4,��
2016/12/24,00:20,1.091,1.811,1.187,2.056,1.412,0.566,1.034,0.958,���k��,3.3,��
2016/12/24,00:30,1.092,1.811,1.187,2.058,1.414,0.566,1.033,0.959,���k��,3.2,��
2016/12/24,00:40,1.091,1.810,1.187,2.056,1.414,0.568,1.034,0.957,���k��,3.0,��
2016/12/24,00:50,1.090,1.809,1.189,2.054,1.412,0.566,1.031,0.957,��,2.3,��
2016/12/24,01:00,1.090,1.811,1.185,2.059,1.411,0.568,1.033,0.957,���k��,2.6,��
2016/12/24,01:10,1.091,1.807,1.187,2.056,1.416,0.566,1.034,0.959,�k��,2.3,��
2016/12/24,01:20,1.088,1.811,1.185,2.057,1.410,0.567,1.034,0.959,�k��,3.7,��
2016/12/24,01:30,1.087,1.810,1.187,2.054,1.411,0.566,1.031,0.957,�k�k��,5.1,��
2016/12/24,01:40,1.092,1.812,1.184,2.055,1.412,0.566,1.034,0.958,�k��,6.2,��
2016/12/24,01:50,1.089,1.810,1.186,2.057,1.411,0.565,1.032,0.959,�k��,6.4,��
2016/12/24,02:00,1.087,1.809,1.185,2.053,1.412,0.567,1.033,0.960,���k��,4.3,��
2016/12/24,02:10,1.088,1.807,1.185,2.056,1.410,0.566,1.034,0.957,��,3.7,��
2016/12/24,02:20,1.088,1.808,1.183,2.056,1.409,0.566,1.033,0.958,���k��,3.9,��
2016/12/24,02:30,1.088,1.808,1.183,2.054,1.411,0.566,1.032,0.958,���k��,4.1,��
2016/12/24,02:40,1.088,1.808,1.186,2.056,1.413,0.565,1.035,0.956,��,4.7,��
2016/12/24,02:50,1.086,1.808,1.185,2.052,1.411,0.563,1.031,0.958,��,6.9,��
2016/12/24,03:00,1.088,1.807,1.187,2.054,1.412,0.565,1.034,0.959,��,8.0,��
2016/12/24,03:10,1.086,1.809,1.186,2.058,1.411,0.565,1.035,0.957,��,8.1,��
2016/12/24,03:20,1.088,1.808,1.182,2.055,1.414,0.564,1.032,0.957,��,7.4,��
2016/12/24,03:30,1.089,1.811,1.184,2.055,1.413,0.565,1.032,0.956,��,5.9,��
2016/12/24,03:40,1.088,1.807,1.184,2.058,1.413,0.565,1.033,0.958,���k��,6.6,��
2016/12/24,03:50,1.087,1.809,1.185,2.055,1.411,0.565,1.031,0.957,��,5.1,��
2016/12/24,04:00,1.088,1.805,1.183,2.054,1.411,0.565,1.030,0.957,��,5.0,��
2016/12/24,04:10,1.086,1.810,1.182,2.057,1.412,0.566,1.034,0.958,��,4.5,��
2016/12/24,04:20,1.088,1.804,1.184,2.056,1.410,0.566,1.033,0.957,��,4.0,��
2016/12/24,04:30,1.085,1.810,1.182,2.055,1.410,0.564,1.030,0.956,��,3.9,��
2016/12/24,04:40,1.086,1.806,1.183,2.058,1.408,0.565,1.031,0.957,��,5.2,��
2016/12/24,04:50,1.087,1.807,1.185,2.054,1.414,0.565,1.031,0.958,��,5.2,��
2016/12/24,05:00,1.085,1.809,1.183,2.055,1.410,0.565,1.032,0.955,���쐼,5.0,��
2016/12/24,05:10,1.088,1.806,1.182,2.056,1.410,0.564,1.032,0.957,��,6.7,��
2016/12/24,05:20,1.087,1.805,1.182,2.055,1.410,0.565,1.033,0.957,���k��,7.5,��
2016/12/24,05:30,1.086,1.809,1.184,2.056,1.410,0.565,1.032,0.960,���k��,8.0,��
2016/12/24,05:40,1.087,1.810,1.183,2.053,1.411,0.562,1.033,0.958,���k��,8.1,��
2016/12/24,05:50,1.087,1.808,1.182,2.054,1.415,0.566,1.031,0.957,���k��,8.4,��
2016/12/24,06:00,1.085,1.809,1.185,2.055,1.411,0.564,1.034,0.958,�k��,7.5,��
2016/12/24,06:10,1.086,1.808,1.182,2.057,1.408,0.564,1.032,0.958,�k��,7.8,��
2016/12/24,06:20,1.085,1.809,1.181,2.054,1.412,0.565,1.032,0.956,�k��,9.6,��
2016/12/24,06:30,1.086,1.809,1.183,2.056,1.412,0.565,1.033,0.959,�k��,9.3,��
2016/12/24,06:40,1.087,1.809,1.181,2.056,1.411,0.565,1.031,0.958,�k��,8.6,��
2016/12/24,06:50,1.083,1.806,1.181,2.056,1.410,0.565,1.032,0.957,�k��,9.6,��
2016/12/24,07:00,1.084,1.806,1.180,2.056,1.411,0.564,1.031,0.958,�k��,9.4,��
2016/12/24,07:10,1.085,1.807,1.181,2.055,1.413,0.564,1.033,0.959,�k��,8.8,��
2016/12/24,07:20,1.085,1.807,1.182,2.057,1.411,0.564,1.034,0.957,�k��,10.7,��
2016/12/24,07:30,1.084,1.807,1.180,2.056,1.410,0.564,1.032,0.957,�k��,10.2,��
2016/12/24,07:40,1.086,1.808,1.184,2.057,1.409,0.563,1.033,0.959,�k��,8.3,��
2016/12/24,07:50,1.084,1.807,1.181,2.057,1.411,0.563,1.031,0.958,�k�k��,6.1,��
2016/12/24,08:00,1.086,1.804,1.182,2.058,1.410,0.565,1.033,0.957,�k�k��,6.3,��
2016/12/24,08:10,1.085,1.805,1.180,2.057,1.414,0.564,1.032,0.958,�k,6.4,��
2016/12/24,08:20,1.085,1.810,1.182,2.058,1.412,0.564,1.031,0.958,�k�k��,6.1,��
2016/12/24,08:30,1.087,1.808,1.182,2.058,1.410,0.563,1.032,0.958,�k�k��,5.1,��
2016/12/24,08:40,1.085,1.807,1.183,2.056,1.411,0.564,1.031,0.958,�k�k��,7.8,��
2016/12/24,08:50,1.087,1.807,1.183,2.055,1.407,0.564,1.033,0.958,�k�k��,7.1,��
2016/12/24,09:00,1.085,1.811,1.184,2.056,1.412,0.565,1.031,0.958,�k�k��,7.4,��
2016/12/24,09:10,1.086,1.808,1.182,2.058,1.410,0.565,1.033,0.956,�k�k��,6.9,��
2016/12/24,09:20,1.088,1.808,1.182,2.055,1.411,0.565,1.034,0.958,�k�k��,7.8,��
2016/12/24,09:30,1.086,1.815,1.184,2.059,1.412,0.566,1.034,0.959,�k�k��,7.3,��
2016/12/24,09:40,1.087,1.808,1.184,2.056,1.412,0.565,1.035,0.958,�k��,7.1,��
2016/12/24,09:50,1.087,1.811,1.182,2.057,1.412,0.566,1.032,0.959,�k�k��,7.3,��
2016/12/24,10:00,1.087,1.809,1.186,2.058,1.414,0.565,1.031,0.958,�k��,7.0,��
2016/12/24,10:10,1.086,1.810,1.186,2.061,1.412,0.564,1.030,0.958,�k��,6.2,��
2016/12/24,10:20,1.090,1.813,1.187,2.060,1.413,0.565,1.033,0.960,�k��,9.4,��
2016/12/24,10:30,1.089,1.809,1.183,2.059,1.413,0.566,1.034,0.959,�k��,11.0,��
2016/12/24,10:40,1.091,1.811,1.185,2.057,1.415,0.566,1.034,0.961,�k��,9.7,��
2016/12/24,10:50,1.090,1.811,1.188,2.060,1.416,0.566,1.033,0.960,�k��,9.5,��
2016/12/24,11:00,1.090,1.815,1.188,2.061,1.417,0.564,1.031,0.957,�k��,10.4,��
2016/12/24,11:10,1.092,1.815,1.189,2.063,1.416,0.567,1.032,0.959,�k��,10.8,��
2016/12/24,11:20,1.090,1.810,1.191,2.057,1.414,0.565,1.032,0.959,�k��,10.2,��
2016/12/24,11:30,1.091,1.813,1.189,2.063,1.418,0.566,1.033,0.958,�k��,10.6,��
2016/12/24,11:40,1.091,1.815,1.186,2.062,1.419,0.566,1.034,0.959,�k��,10.5,��
2016/12/24,11:50,1.093,1.812,1.187,2.065,1.417,0.564,1.034,0.961,�k��,10.2,��
2016/12/24,12:00,1.092,1.813,1.187,2.064,1.414,0.567,1.034,0.958,�k��,10.6,��
2016/12/24,12:10,1.091,1.812,1.187,2.065,1.418,0.566,1.032,0.960,�k��,12.8,��
2016/12/24,12:20,1.092,1.811,1.187,2.068,1.418,0.566,1.032,0.960,�k��,9.4,��
2016/12/24,12:30,1.094,1.809,1.187,2.066,1.420,0.567,1.034,0.960,�k��,9.9,��
2016/12/24,12:40,1.094,1.810,1.187,2.066,1.421,0.567,1.035,0.960,�k��,11.6,��
2016/12/24,12:50,1.093,1.811,1.186,2.066,1.416,0.565,1.033,0.960,�k��,10.2,��
2016/12/24,13:00,1.093,1.812,1.192,2.066,1.418,0.567,1.033,0.960,�k��,6.3,��
2016/12/24,13:10,1.092,1.811,1.189,2.063,1.420,0.566,1.036,0.959,�k�k��,9.5,��
2016/12/24,13:20,1.095,1.814,1.190,2.063,1.418,0.567,1.037,0.957,�k�k��,8.2,��
2016/12/24,13:30,1.094,1.815,1.190,2.066,1.419,0.567,1.034,0.959,�k�k��,8.8,��
2016/12/24,13:40,1.092,1.813,1.189,2.066,1.421,0.566,1.035,0.956,�k�k��,9.9,��
2016/12/24,13:50,1.094,1.809,1.189,2.065,1.420,0.565,1.035,0.960,�k��,7.9,��
2016/12/24,14:00,1.094,1.813,1.190,2.070,1.418,0.566,1.036,0.959,�k�k��,8.7,��
2016/12/24,14:10,1.093,1.812,1.188,2.063,1.419,0.566,1.037,0.958,�k�k��,8.1,��
2016/12/24,14:20,1.092,1.814,1.190,2.065,1.418,0.565,1.035,0.961,�k�k��,7.6,��
2016/12/24,14:30,1.094,1.813,1.192,2.067,1.420,0.566,1.034,0.959,�k�k��,7.6,��
2016/12/24,14:40,1.094,1.816,1.189,2.069,1.419,0.565,1.036,0.960,�k�k��,7.6,��
2016/12/24,14:50,1.093,1.815,1.189,2.067,1.423,0.565,1.034,0.959,�k��,6.9,��
2016/12/24,15:00,1.093,1.818,1.188,2.066,1.420,0.567,1.037,0.961,�k��,6.8,��
2016/12/24,15:10,1.091,1.813,1.189,2.066,1.419,0.566,1.036,0.961,�k��,7.5,��
2016/12/24,15:20,1.092,1.818,1.191,2.064,1.420,0.566,1.036,0.959,�k��,7.3,��
2016/12/24,15:30,1.093,1.817,1.190,2.068,1.420,0.566,1.033,0.960,�k��,9.2,��
2016/12/24,15:40,1.089,1.819,1.189,2.062,1.420,0.565,1.034,0.958,�k��,7.2,��
2016/12/24,15:50,1.089,1.821,1.189,2.065,1.418,0.564,1.035,0.959,�k��,7.5,��
2016/12/24,16:00,1.089,1.819,1.189,2.063,1.419,0.566,1.033,0.961,�k��,6.8,��
2016/12/24,16:10,1.090,1.814,1.190,2.064,1.419,0.564,1.034,0.957,�k��,6.9,��
2016/12/24,16:20,1.090,1.816,1.188,2.064,1.421,0.564,1.035,0.957,�k�k��,3.9,��
2016/12/24,16:30,1.091,1.816,1.189,2.063,1.420,0.564,1.033,0.957,�k��,5.2,��
2016/12/24,16:40,1.090,1.818,1.189,2.064,1.421,0.564,1.032,0.957,�k��,7.8,��
2016/12/24,16:50,1.090,1.819,1.187,2.063,1.418,0.564,1.033,0.957,�k��,5.9,��
2016/12/24,17:00,1.089,1.817,1.188,2.064,1.416,0.565,1.032,0.958,�k��,5.0,��
2016/12/24,17:10,1.088,1.815,1.187,2.063,1.420,0.565,1.030,0.957,���k��,2.9,��
2016/12/24,17:20,1.088,1.816,1.185,2.063,1.419,0.563,1.032,0.957,���k��,4.1,��
2016/12/24,17:30,1.087,1.817,1.187,2.063,1.420,0.564,1.032,0.957,�k��,5.1,��
2016/12/24,17:40,1.089,1.817,1.188,2.061,1.420,0.564,1.033,0.959,�k��,5.7,��
2016/12/24,17:50,1.086,1.812,1.187,2.062,1.422,0.565,1.034,0.959,�k��,6.8,��
2016/12/24,18:00,1.088,1.817,1.187,2.061,1.420,0.564,1.033,0.957,�k��,6.2,��
2016/12/24,18:10,1.087,1.819,1.187,2.062,1.417,0.564,1.031,0.958,�k��,6.1,��
2016/12/24,18:20,1.088,1.817,1.187,2.062,1.420,0.563,1.031,0.956,�k��,5.1,��
2016/12/24,18:30,1.086,1.816,1.186,2.063,1.421,0.564,1.031,0.958,�k��,3.3,��
2016/12/24,18:40,1.087,1.816,1.186,2.061,1.419,0.564,1.032,0.955,���k��,4.3,��
2016/12/24,18:50,1.086,1.816,1.185,2.060,1.417,0.563,1.030,0.957,���k��,4.5,��
2016/12/24,19:00,1.086,1.819,1.185,2.063,1.418,0.563,1.028,0.956,���k��,5.2,��
2016/12/24,19:10,1.088,1.816,1.186,2.062,1.417,0.561,1.030,0.956,���k��,5.7,��
2016/12/24,19:20,1.085,1.814,1.183,2.061,1.418,0.563,1.029,0.957,�k��,5.8,��
2016/12/24,19:30,1.085,1.817,1.183,2.059,1.420,0.563,1.031,0.958,�k��,5.5,��
2016/12/24,19:40,1.086,1.816,1.183,2.060,1.420,0.563,1.030,0.957,���k��,5.1,��
2016/12/24,19:50,1.085,1.815,1.185,2.062,1.420,0.564,1.030,0.957,���k��,4.4,��
2016/12/24,20:00,1.083,1.815,1.186,2.062,1.419,0.563,1.029,0.957,���k��,4.6,��
2016/12/24,20:10,1.085,1.817,1.182,2.061,1.418,0.563,1.030,0.956,���k��,4.6,��
2016/12/24,20:20,1.085,1.816,1.184,2.061,1.417,0.562,1.030,0.956,���k��,4.3,��
2016/12/24,20:30,1.084,1.816,1.186,2.060,1.416,0.563,1.028,0.957,��,2.5,��
2016/12/24,20:40,1.084,1.813,1.185,2.057,1.416,0.564,1.028,0.957,��,1.4,��
2016/12/24,20:50,1.085,1.813,1.184,2.060,1.417,0.561,1.028,0.956,���k��,3.6,��
2016/12/24,21:00,1.083,1.813,1.187,2.060,1.418,0.565,1.029,0.956,���k��,4.5,��
2016/12/24,21:10,1.084,1.817,1.184,2.060,1.416,0.563,1.027,0.957,���k��,4.4,��
2016/12/24,21:20,1.083,1.816,1.184,2.058,1.418,0.562,1.030,0.956,���k��,4.0,��
2016/12/24,21:30,1.085,1.813,1.184,2.058,1.417,0.563,1.030,0.955,���k��,4.6,��
2016/12/24,21:40,1.082,1.814,1.184,2.058,1.417,0.563,1.030,0.955,���k��,5.6,��
2016/12/24,21:50,1.085,1.815,1.184,2.057,1.416,0.562,1.029,0.954,���k��,4.4,��
2016/12/24,22:00,1.084,1.816,1.184,2.060,1.416,0.562,1.030,0.956,���k��,3.6,��
2016/12/24,22:10,1.082,1.816,1.184,2.060,1.416,0.564,1.030,0.956,���k��,3.9,��
2016/12/24,22:20,1.082,1.813,1.181,2.060,1.419,0.563,1.030,0.955,���k��,3.8,��
2016/12/24,22:30,1.081,1.816,1.181,2.057,1.416,0.563,1.026,0.956,�k��,3.8,��
2016/12/24,22:40,1.082,1.815,1.183,2.058,1.418,0.563,1.029,0.955,�k��,4.3,��
2016/12/24,22:50,1.083,1.817,1.183,2.056,1.415,0.563,1.029,0.955,�k�k��,5.1,��
2016/12/24,23:00,1.083,1.814,1.183,2.059,1.415,0.562,1.031,0.957,�k�k��,5.8,��
2016/12/24,23:10,1.081,1.815,1.183,2.059,1.417,0.561,1.031,0.956,�k��,6.4,��
2016/12/24,23:20,1.083,1.811,1.186,2.058,1.414,0.562,1.028,0.956,�k��,6.2,��
2016/12/24,23:30,1.080,1.817,1.183,2.062,1.418,0.563,1.028,0.956,�k��,5.0,��
2016/12/24,23:40,1.081,1.812,1.183,2.058,1.415,0.562,1.028,0.953,�k��,4.1,��
2016/12/24,23:50,1.084,1.812,1.182,2.057,1.417,0.561,1.028,0.956,�k��,3.9,��
